Satellite: AUBIESAT Catalog number: 37854 Epoch time: 12362.25121090 Element set: 381 Inclination: 101.7076 deg RA of node: 131.0782 deg Eccentricity: 0.0242209 Arg of perigee: 158.9228 deg Mean anomaly: 202.2166 deg Mean motion: 14.82492164 rev/day Decay rate: 6.320e-05 rev/day^2 Epoch rev: 6297 Checksum: 274
Satellite: HRBE Catalog number: 37855 Epoch time: 12362.89672876 Element set: 378 Inclination: 101.7087 deg RA of node: 131.8939 deg Eccentricity: 0.0242114 Arg of perigee: 157.2726 deg Mean anomaly: 203.9398 deg Mean motion: 14.82253044 rev/day Decay rate: 5.950e-05 rev/day^2 Epoch rev: 6306 Checksum: 324
Satellite: RS-39 Catalog number: 38051 Epoch time: 12362.89884397 Element set: 22 Inclination: 051.6360 deg RA of node: 314.2687 deg Eccentricity: 0.0012845 Arg of perigee: 015.2488 deg Mean anomaly: 087.6441 deg Mean motion: 15.28205384 rev/day Decay rate: 9.780e-05 rev/day^2 Epoch rev: 5155 Checksum: 320
Satellite: E-STAR Catalog number: 38079 Epoch time: 12362.82443454 Element set: 752 Inclination: 069.4813 deg RA of node: 228.3408 deg Eccentricity: 0.0677146 Arg of perigee: 000.5150 deg Mean anomaly: 359.6421 deg Mean motion: 14.30905621 rev/day Decay rate: 4.3941e-04 rev/day^2 Epoch rev: 4511 Checksum: 290
Satellite: GOLIAT Catalog number: 38085 Epoch time: 12362.06442101 Element set: 720 Inclination: 069.4822 deg RA of node: 231.1904 deg Eccentricity: 0.0683497 Arg of perigee: 002.1162 deg Mean anomaly: 358.2572 deg Mean motion: 14.29384719 rev/day Decay rate: 4.3321e-04 rev/day^2 Epoch rev: 4497 Checksum: 289
Satellite: HORYU-2 Catalog number: 38340 Epoch time: 12362.24747567 Element set: 296 Inclination: 098.1956 deg RA of node: 302.6656 deg Eccentricity: 0.0013848 Arg of perigee: 078.0330 deg Mean anomaly: 282.2427 deg Mean motion: 14.70496819 rev/day Decay rate: 9.18e-06 rev/day^2 Epoch rev: 3284 Checksum: 325
Satellite: RS-40 Catalog number: 38736 Epoch time: 12362.29560778 Element set: 145 Inclination: 082.4780 deg RA of node: 262.3050 deg Eccentricity: 0.0019210 Arg of perigee: 347.2165 deg Mean anomaly: 012.8431 deg Mean motion: 12.42649245 rev/day Decay rate: 1.0e-07 rev/day^2 Epoch rev: 1889 Checksum: 283
Satellite: PROITERES Catalog number: 38756 Epoch time: 12362.79151244 Element set: 358 Inclination: 098.2739 deg RA of node: 070.5670 deg Eccentricity: 0.0011572 Arg of perigee: 295.4108 deg Mean anomaly: 064.5891 deg Mean motion: 14.74023185 rev/day Decay rate: 4.09e-06 rev/day^2 Epoch rev: 1614 Checksum: 302
Satellite: AENEAS Catalog number: 38760 Epoch time: 12359.48284668 Element set: 0024 Inclination: 064.6739 deg RA of node: 089.2465 deg Eccentricity: 0.0216537 Arg of perigee: 261.2495 deg Mean anomaly: 096.3974 deg Mean motion: 14.79896105 rev/day Decay rate: 3.640e-05 rev/day^2 Epoch rev: 00309 Checksum: 339
Satellite: CSSWE-D Catalog number: 38761 Epoch time: 12359.41711196 Element set: 0021 Inclination: 064.6739 deg RA of node: 089.4656 deg Eccentricity: 0.0218171 Arg of perigee: 261.3429 deg Mean anomaly: 096.2846 deg Mean motion: 14.79725498 rev/day Decay rate: 3.021e-05 rev/day^2 Epoch rev: 00310 Checksum: 308
Satellite: CXBN-E Catalog number: 38762 Epoch time: 12359.41141563 Element set: 0021 Inclination: 064.6743 deg RA of node: 089.4492 deg Eccentricity: 0.0217899 Arg of perigee: 261.0904 deg Mean anomaly: 096.5412 deg Mean motion: 14.79857891 rev/day Decay rate: 3.488e-05 rev/day^2 Epoch rev: 00317 Checksum: 327
Satellite: OBJECT F Catalog number: 38763 Epoch time: 12359.34641318 Element set: 0021 Inclination: 064.6732 deg RA of node: 089.6538 deg Eccentricity: 0.0218649 Arg of perigee: 261.4015 deg Mean anomaly: 096.2190 deg Mean motion: 14.79750605 rev/day Decay rate: 2.910e-05 rev/day^2 Epoch rev: 00310 Checksum: 291
Satellite: CINEMA-G Catalog number: 38764 Epoch time: 12359.41227137 Element set: 0020 Inclination: 064.6726 deg RA of node: 089.4344 deg Eccentricity: 0.0218234 Arg of perigee: 261.4111 deg Mean anomaly: 096.2139 deg Mean motion: 14.79795557 rev/day Decay rate: 3.070e-05 rev/day^2 Epoch rev: 00307 Checksum: 294
Satellite: CP5 Catalog number: 38765 Epoch time: 12359.54146210 Element set: 0020 Inclination: 064.6740 deg RA of node: 088.9919 deg Eccentricity: 0.0217248 Arg of perigee: 261.0239 deg Mean anomaly: 096.6172 deg Mean motion: 14.79949376 rev/day Decay rate: 3.743e-05 rev/day^2 Epoch rev: 00309 Checksum: 324
Satellite: RAIKO Catalog number: 38852 Epoch time: 12362.53677365 Element set: 91 Inclination: 051.6473 deg RA of node: 239.2412 deg Eccentricity: 0.0017864 Arg of perigee: 086.8661 deg Mean anomaly: 273.4421 deg Mean motion: 15.57218799 rev/day Decay rate: 2.8768e-04 rev/day^2 Epoch rev: 1298 Checksum: 337
Satellite: FITSAT 1 Catalog number: 38853 Epoch time: 12362.89051014 Element set: 89 Inclination: 051.6467 deg RA of node: 237.1147 deg Eccentricity: 0.0015667 Arg of perigee: 105.7048 deg Mean anomaly: 254.5673 deg Mean motion: 15.58409142 rev/day Decay rate: 3.5873e-04 rev/day^2 Epoch rev: 1309 Checksum: 308
Satellite: TechEdSat Catalog number: 38854 Epoch time: 12361.92719620 Element set: 98 Inclination: 051.6451 deg RA of node: 241.1692 deg Eccentricity: 0.0015398 Arg of perigee: 105.3498 deg Mean anomaly: 254.9198 deg Mean motion: 15.60943850 rev/day Decay rate: 5.3489e-04 rev/day^2 Epoch rev: 1295 Checksum: 329
Satellite: F 1 Catalog number: 38855 Epoch time: 12362.12712913 Element set: 101 Inclination: 051.6448 deg RA of node: 240.2583 deg Eccentricity: 0.0015756 Arg of perigee: 107.2941 deg Mean anomaly: 252.9774 deg Mean motion: 15.60669194 rev/day Decay rate: 5.1432e-04 rev/day^2 Epoch rev: 1287 Checksum: 295
Satellite: WeWish Catalog number: 38856 Epoch time: 12362.88956183 Element set: 116 Inclination: 051.6436 deg RA of node: 234.8406 deg Eccentricity: 0.0017162 Arg of perigee: 112.3072 deg Mean anomaly: 247.9747 deg Mean motion: 15.66611068 rev/day Decay rate: 1.04741e-03 rev/day^2 Epoch rev: 1301 Checksum: 293
/EX